Volver al catálogo

STARLINK-2682

ActivoComunicacionesVLEO
NORAD 48440·PAYLOAD·🇺🇸 United States

Lanzado May 9, 2021 desde Cape Canaveral Space Force Station

Loading…

Próximos Pases (próximas 24 horas)

TLE

ActualizadoSource: CelesTrak SupGP

Época: Sep 14, 2026, 21:37 UTC

1 48440C 21040N   26257.90118056 -.00007774  00000+0 -24998-3 0  2577
2 48440  53.1599  17.5758 0001273  80.0240 193.1883 15.31707681    17

Sigue STARLINK-2682 en tiempo real con AllMySat

Download on the App Store